Location: La Brionne
(46.1728°N, 1.7849°E)
Time: 07:06:27
(UTC+00:00)

ARIANE 5 R/B - Pass Details

Date: 16 June 2021
Orbit: 620 x 656 km, 98.1° (Epoch: 28 July)

Event Time Altitude Azimuth Distance (km) Brightness Sun altitude
Exits shadow 21:43:40 15° 192° (SSW) 1,741 4.4 -14.5°
Maximum altitude 21:47:09 45° 261° (W) 886 3.5 -14.8°
Drops below altitude 10° 21:51:27 10° 334° (NNW) 2,060 6.6 -15.1°
Sets 21:53:46 0° 341° (NNW) 2,980 7.8 -15.3°
